Time,TemperatureF,DewpointF,PressureIn,WindDirection,WindDirectionDegrees,WindSpeedMPH,WindSpeedGustMPH,Humidity,HourlyPrecipIn,Conditions,Clouds,dailyrainin,SoftwareType,DateUTC
2013-10-02 00:01:00,57.2,55.5,30.08,NE,36,0.0,0.0,94,0.00,,,0.00,Wunderground v.1.15,2013-10-02 04:01:00,
2013-10-02 00:03:00,57.2,55.8,30.08,NE,36,0.0,0.0,95,0.00,,,0.00,Wunderground v.1.15,2013-10-02 04:03:00,
2013-10-02 00:04:00,57.2,55.8,30.08,NE,36,0.0,0.0,95,0.00,,,0.00,Wunderground v.1.15,2013-10-02 04:04:00,
2013-10-02 00:06:00,57.2,55.8,30.08,NE,36,0.0,0.0,95,0.00,,,0.00,Wunderground v.1.15,2013-10-02 04:06:00,
2013-10-02 00:07:00,57.2,55.8,30.08,NE,36,0.0,0.0,95,0.00,,,0.00,Wunderground v.1.15,2013-10-02 04:07:00,
2013-10-02 00:13:00,57.0,55.6,30.08,NE,36,0.0,0.0,95,0.00,,,0.00,Wunderground v.1.15,2013-10-02 04:13:00,
2013-10-02 00:18:00,57.0,55.6,30.08,NE,36,0.0,0.0,95,0.00,,,0.00,Wunderground v.1.15,2013-10-02 04:18:00,
2013-10-02 00:23:00,56.9,55.5,30.08,NE,36,0.0,0.0,95,0.00,,,0.00,Wunderground v.1.15,2013-10-02 04:23:00,
2013-10-02 00:29:00,56.7,55.3,30.08,NE,36,0.0,0.0,95,0.00,,,0.00,Wunderground v.1.15,2013-10-02 04:29:00,
2013-10-02 00:34:00,56.6,55.2,30.08,NE,36,0.0,0.0,95,0.00,,,0.00,Wunderground v.1.15,2013-10-02 04:34:00,
2013-10-02 00:40:00,56.6,55.2,30.08,NE,36,0.0,0.0,95,0.00,,,0.00,Wunderground v.1.15,2013-10-02 04:40:00,
2013-10-02 00:45:00,56.5,55.1,30.08,NE,36,0.0,0.0,95,0.00,,,0.00,Wunderground v.1.15,2013-10-02 04:45:00,
2013-10-02 00:51:00,56.5,55.1,30.08,NE,36,0.0,0.0,95,0.00,,,0.00,Wunderground v.1.15,2013-10-02 04:51:00,
2013-10-02 00:56:00,56.5,55.4,30.08,NE,36,0.0,0.0,96,0.00,,,0.00,Wunderground v.1.15,2013-10-02 04:56:00,
2013-10-02 01:02:00,56.5,55.4,30.08,NE,36,0.0,0.0,96,0.00,,,0.00,Wunderground v.1.15,2013-10-02 05:02:00,
2013-10-02 01:08:00,56.5,55.4,30.08,NE,36,0.0,0.0,96,0.00,,,0.00,Wunderground v.1.15,2013-10-02 05:08:00,
2013-10-02 01:14:00,56.5,55.4,30.08,NE,36,0.0,0.0,96,0.00,,,0.00,Wunderground v.1.15,2013-10-02 05:14:00,
2013-10-02 01:20:00,56.2,55.1,30.08,NE,36,0.0,0.0,96,0.00,,,0.00,Wunderground v.1.15,2013-10-02 05:20:00,
2013-10-02 01:26:00,56.0,54.9,30.08,NE,36,0.0,0.0,96,0.00,,,0.00,Wunderground v.1.15,2013-10-02 05:26:00,
2013-10-02 01:32:00,55.9,54.8,30.08,NE,36,0.0,0.0,96,0.00,,,0.00,Wunderground v.1.15,2013-10-02 05:32:00,
2013-10-02 01:37:00,55.9,54.8,30.08,NE,36,0.0,0.0,96,0.00,,,0.00,Wunderground v.1.15,2013-10-02 05:37:00,
2013-10-02 01:43:00,55.7,54.6,30.08,NE,36,0.0,0.0,96,0.00,,,0.00,Wunderground v.1.15,2013-10-02 05:43:00,
2013-10-02 01:49:00,55.6,54.2,30.08,NE,36,0.0,0.0,95,0.00,,,0.00,Wunderground v.1.15,2013-10-02 05:49:00,
2013-10-02 01:55:00,55.6,54.5,30.08,NE,36,0.0,0.0,96,0.00,,,0.00,Wunderground v.1.15,2013-10-02 05:55:00,
2013-10-02 02:00:00,55.6,54.5,30.08,NE,36,0.0,0.0,96,0.00,,,0.00,Wunderground v.1.15,2013-10-02 06:00:00,
2013-10-02 02:06:00,55.6,54.5,30.08,NE,36,0.0,0.0,96,0.00,,,0.00,Wunderground v.1.15,2013-10-02 06:06:00,
2013-10-02 02:11:00,55.6,54.5,30.08,NE,36,0.0,0.0,96,0.00,,,0.00,Wunderground v.1.15,2013-10-02 06:11:00,
2013-10-02 02:17:00,55.7,54.6,30.08,NE,36,0.0,0.0,96,0.00,,,0.00,Wunderground v.1.15,2013-10-02 06:17:00,
2013-10-02 02:23:00,55.9,54.8,30.08,NE,36,0.0,0.0,96,0.00,,,0.00,Wunderground v.1.15,2013-10-02 06:23:00,
2013-10-02 02:29:00,56.0,54.9,30.08,NE,36,0.0,0.0,96,0.00,,,0.00,Wunderground v.1.15,2013-10-02 06:29:00,
2013-10-02 02:35:00,56.0,54.9,30.08,NE,36,0.0,0.0,96,0.00,,,0.00,Wunderground v.1.15,2013-10-02 06:35:00,
2013-10-02 02:41:00,56.2,55.1,30.08,NE,36,0.0,0.0,96,0.00,,,0.00,Wunderground v.1.15,2013-10-02 06:41:00,
2013-10-02 02:47:00,56.2,55.1,30.08,NE,36,0.0,0.0,96,0.00,,,0.00,Wunderground v.1.15,2013-10-02 06:47:00,
2013-10-02 02:53:00,56.2,55.1,30.08,NE,36,0.0,0.0,96,0.00,,,0.00,Wunderground v.1.15,2013-10-02 06:53:00,
2013-10-02 02:58:00,56.2,55.1,30.08,NE,36,0.0,0.0,96,0.00,,,0.00,Wunderground v.1.15,2013-10-02 06:58:00,
2013-10-02 03:04:00,56.2,55.1,30.07,NE,36,0.0,0.0,96,0.00,,,0.00,Wunderground v.1.15,2013-10-02 07:04:00,
2013-10-02 03:09:00,56.0,54.9,30.07,NE,36,0.0,0.0,96,0.00,,,0.00,Wunderground v.1.15,2013-10-02 07:09:00,
2013-10-02 03:15:00,55.9,55.1,30.07,NE,36,0.0,0.0,97,0.00,,,0.00,Wunderground v.1.15,2013-10-02 07:15:00,
2013-10-02 03:20:00,55.9,55.1,30.07,NE,36,0.0,0.0,97,0.00,,,0.00,Wunderground v.1.15,2013-10-02 07:20:00,
2013-10-02 03:26:00,55.9,55.1,30.07,NE,36,0.0,0.0,97,0.00,,,0.00,Wunderground v.1.15,2013-10-02 07:26:00,
2013-10-02 03:32:00,55.9,55.1,30.07,NE,36,0.0,0.0,97,0.00,,,0.00,Wunderground v.1.15,2013-10-02 07:32:00,
2013-10-02 03:38:00,55.9,55.1,30.07,NE,36,0.0,0.0,97,0.00,,,0.00,Wunderground v.1.15,2013-10-02 07:38:00,
2013-10-02 03:44:00,55.9,55.1,30.07,NE,36,0.0,0.0,97,0.00,,,0.00,Wunderground v.1.15,2013-10-02 07:44:00,
2013-10-02 03:50:00,55.9,55.1,30.07,NE,36,0.0,0.0,97,0.00,,,0.00,Wunderground v.1.15,2013-10-02 07:50:00,
2013-10-02 03:55:00,55.9,55.1,30.07,NE,36,0.0,0.0,97,0.00,,,0.00,Wunderground v.1.15,2013-10-02 07:55:00,
2013-10-02 04:01:00,55.9,55.1,30.07,NE,36,0.0,0.0,97,0.00,,,0.00,Wunderground v.1.15,2013-10-02 08:01:00,
2013-10-02 04:06:00,55.7,54.9,30.07,NE,36,0.0,2.0,97,0.00,,,0.00,Wunderground v.1.15,2013-10-02 08:06:00,
2013-10-02 04:12:00,55.4,54.6,30.07,NE,36,0.0,2.0,97,0.00,,,0.00,Wunderground v.1.15,2013-10-02 08:12:00,
2013-10-02 04:17:00,55.3,54.5,30.07,WSW,241,0.0,2.0,97,0.00,,,0.00,Wunderground v.1.15,2013-10-02 08:17:00,
2013-10-02 04:23:00,55.1,54.3,30.07,WSW,241,0.0,2.0,97,0.00,,,0.00,Wunderground v.1.15,2013-10-02 08:23:00,
2013-10-02 04:29:00,55.1,54.5,30.07,WSW,241,0.0,2.0,98,0.00,,,0.00,Wunderground v.1.15,2013-10-02 08:29:00,
2013-10-02 04:35:00,55.3,54.7,30.07,WSW,241,0.0,3.0,98,0.00,,,0.00,Wunderground v.1.15,2013-10-02 08:35:00,
2013-10-02 04:41:00,55.3,54.7,30.07,WSW,241,0.0,3.0,98,0.00,,,0.00,Wunderground v.1.15,2013-10-02 08:41:00,
2013-10-02 04:47:00,55.3,54.7,30.07,WSW,241,0.0,3.0,98,0.00,,,0.00,Wunderground v.1.15,2013-10-02 08:47:00,
2013-10-02 04:53:00,55.3,54.7,30.07,WSW,241,0.0,3.0,98,0.00,,,0.00,Wunderground v.1.15,2013-10-02 08:53:00,
2013-10-02 04:58:00,55.3,54.7,30.07,WSW,241,0.0,3.0,98,0.00,,,0.00,Wunderground v.1.15,2013-10-02 08:58:00,
2013-10-02 05:04:00,55.1,54.5,30.07,WSW,241,0.0,2.0,98,0.00,,,0.00,Wunderground v.1.15,2013-10-02 09:04:00,
2013-10-02 05:10:00,55.1,54.5,30.07,WSW,241,0.0,2.0,98,0.00,,,0.00,Wunderground v.1.15,2013-10-02 09:10:00,
2013-10-02 05:16:00,55.1,54.5,30.07,WSW,241,0.0,2.0,98,0.00,,,0.00,Wunderground v.1.15,2013-10-02 09:16:00,
2013-10-02 05:22:00,54.8,54.2,30.07,WSW,241,0.0,2.0,98,0.00,,,0.00,Wunderground v.1.15,2013-10-02 09:22:00,
2013-10-02 05:28:00,54.7,54.1,30.07,WSW,241,0.0,2.0,98,0.00,,,0.00,Wunderground v.1.15,2013-10-02 09:28:00,
2013-10-02 05:34:00,54.5,53.9,30.07,WSW,241,0.0,2.0,98,0.00,,,0.00,Wunderground v.1.15,2013-10-02 09:34:00,
2013-10-02 05:39:00,54.5,53.9,30.07,WSW,241,0.0,2.0,98,0.00,,,0.00,Wunderground v.1.15,2013-10-02 09:39:00,
2013-10-02 05:45:00,54.4,53.8,30.07,WSW,241,0.0,2.0,98,0.00,,,0.00,Wunderground v.1.15,2013-10-02 09:45:00,
2013-10-02 05:50:00,54.4,53.8,30.07,WSW,241,0.0,2.0,98,0.00,,,0.00,Wunderground v.1.15,2013-10-02 09:50:00,
2013-10-02 05:56:00,54.5,53.9,30.07,WSW,241,0.0,2.0,98,0.00,,,0.00,Wunderground v.1.15,2013-10-02 09:56:00,
2013-10-02 06:02:00,54.4,53.8,30.08,WSW,241,0.0,2.0,98,0.00,,,0.00,Wunderground v.1.15,2013-10-02 10:02:00,
2013-10-02 06:08:00,54.4,53.8,30.08,WSW,241,0.0,2.0,98,0.00,,,0.00,Wunderground v.1.15,2013-10-02 10:08:00,
2013-10-02 06:14:00,54.4,53.8,30.08,WSW,241,0.0,2.0,98,0.00,,,0.00,Wunderground v.1.15,2013-10-02 10:14:00,
2013-10-02 06:19:00,54.4,53.8,30.08,WSW,241,0.0,2.0,98,0.00,,,0.00,Wunderground v.1.15,2013-10-02 10:19:00,
2013-10-02 06:25:00,54.2,53.6,30.08,WSW,241,0.0,2.0,98,0.00,,,0.00,Wunderground v.1.15,2013-10-02 10:25:00,
2013-10-02 06:31:00,54.2,53.6,30.08,WSW,241,0.0,2.0,98,0.00,,,0.00,Wunderground v.1.15,2013-10-02 10:31:00,
2013-10-02 06:37:00,54.2,53.6,30.08,WSW,241,0.0,1.0,98,0.00,,,0.00,Wunderground v.1.15,2013-10-02 10:37:00,
2013-10-02 06:42:00,54.2,53.6,30.08,WSW,241,0.0,1.0,98,0.00,,,0.00,Wunderground v.1.15,2013-10-02 10:42:00,
2013-10-02 06:48:00,54.2,53.6,30.09,WSW,241,0.0,1.0,98,0.00,,,0.00,Wunderground v.1.15,2013-10-02 10:48:00,
2013-10-02 06:53:00,54.1,53.5,30.09,WSW,241,0.0,1.0,98,0.00,,,0.00,Wunderground v.1.15,2013-10-02 10:53:00,
2013-10-02 06:59:00,54.1,53.5,30.09,WSW,241,0.0,1.0,98,0.00,,,0.00,Wunderground v.1.15,2013-10-02 10:59:00,
2013-10-02 07:04:00,53.9,53.3,30.10,WSW,241,0.0,1.0,98,0.00,,,0.00,Wunderground v.1.15,2013-10-02 11:04:00,
2013-10-02 07:10:00,53.6,53.0,30.10,WSW,241,0.0,1.0,98,0.00,,,0.00,Wunderground v.1.15,2013-10-02 11:10:00,
2013-10-02 07:16:00,53.5,52.9,30.10,WSW,241,0.0,1.0,98,0.00,,,0.00,Wunderground v.1.15,2013-10-02 11:16:00,
2013-10-02 07:22:00,53.3,52.8,30.10,WSW,241,0.0,1.0,98,0.00,,,0.00,Wunderground v.1.15,2013-10-02 11:22:00,
2013-10-02 07:27:00,53.2,52.7,30.10,WSW,241,0.0,1.0,98,0.00,,,0.00,Wunderground v.1.15,2013-10-02 11:27:00,
2013-10-02 07:33:00,53.2,52.9,30.10,WSW,241,0.0,0.0,99,0.00,,,0.00,Wunderground v.1.15,2013-10-02 11:33:00,
2013-10-02 07:39:00,53.2,52.9,30.10,WSW,241,0.0,0.0,99,0.00,,,0.00,Wunderground v.1.15,2013-10-02 11:39:00,
2013-10-02 07:45:00,53.3,53.0,30.10,WSW,241,0.0,0.0,99,0.00,,,0.00,Wunderground v.1.15,2013-10-02 11:45:00,
2013-10-02 07:51:00,53.3,53.0,30.10,WSW,241,0.0,3.0,99,0.00,,,0.00,Wunderground v.1.15,2013-10-02 11:51:00,
2013-10-02 07:57:00,53.5,53.2,30.10,WSW,241,0.0,0.0,99,0.00,,,0.00,Wunderground v.1.15,2013-10-02 11:57:00,
2013-10-02 08:03:00,53.5,53.2,30.11,WSW,241,0.0,3.0,99,0.00,,,0.00,Wunderground v.1.15,2013-10-02 12:03:00,
2013-10-02 08:09:00,53.6,53.3,30.11,WSW,241,0.0,3.0,99,0.00,,,0.00,Wunderground v.1.15,2013-10-02 12:09:00,
2013-10-02 08:14:00,53.6,53.3,30.11,WSW,241,0.0,3.0,99,0.00,,,0.00,Wunderground v.1.15,2013-10-02 12:14:00,
2013-10-02 08:20:00,53.6,53.3,30.11,WSW,241,0.0,3.0,99,0.00,,,0.00,Wunderground v.1.15,2013-10-02 12:20:00,
2013-10-02 08:25:00,53.6,53.3,30.11,WSW,241,0.0,3.0,99,0.00,,,0.00,Wunderground v.1.15,2013-10-02 12:25:00,
2013-10-02 08:31:00,53.5,53.2,30.12,WSW,241,0.0,3.0,99,0.00,,,0.00,Wunderground v.1.15,2013-10-02 12:31:00,
2013-10-02 08:36:00,53.5,53.2,30.12,WSW,241,0.0,2.0,99,0.00,,,0.00,Wunderground v.1.15,2013-10-02 12:36:00,
2013-10-02 08:42:00,53.5,53.2,30.12,WSW,241,0.0,2.0,99,0.00,,,0.00,Wunderground v.1.15,2013-10-02 12:42:00,
2013-10-02 08:47:00,53.5,53.2,30.12,WSW,241,0.0,2.0,99,0.00,,,0.00,Wunderground v.1.15,2013-10-02 12:47:00,
2013-10-02 08:53:00,53.6,53.3,30.12,WSW,241,0.0,2.0,99,0.00,,,0.00,Wunderground v.1.15,2013-10-02 12:53:00,
2013-10-02 08:58:00,53.5,53.2,30.12,WSW,241,0.0,2.0,99,0.00,,,0.00,Wunderground v.1.15,2013-10-02 12:58:00,
2013-10-02 09:04:00,53.5,53.2,30.13,WSW,241,0.0,1.0,99,0.00,,,0.00,Wunderground v.1.15,2013-10-02 13:04:00,
2013-10-02 09:09:00,53.6,53.3,30.13,WSW,241,0.0,1.0,99,0.00,,,0.00,Wunderground v.1.15,2013-10-02 13:09:00,
2013-10-02 09:15:00,53.9,53.6,30.13,WSW,241,0.0,1.0,99,0.00,,,0.00,Wunderground v.1.15,2013-10-02 13:15:00,
2013-10-02 09:21:00,54.2,53.9,30.13,WSW,241,0.0,1.0,99,0.00,,,0.00,Wunderground v.1.15,2013-10-02 13:21:00,
2013-10-02 09:27:00,54.4,54.1,30.13,WSW,241,0.0,1.0,99,0.00,,,0.00,Wunderground v.1.15,2013-10-02 13:27:00,
2013-10-02 09:32:00,54.4,54.1,30.13,WSW,241,0.0,2.0,99,0.00,,,0.00,Wunderground v.1.15,2013-10-02 13:32:00,
2013-10-02 09:37:00,54.7,54.4,30.13,WSW,241,0.0,2.0,99,0.00,,,0.00,Wunderground v.1.15,2013-10-02 13:37:00,
2013-10-02 09:43:00,54.8,54.5,30.13,WSW,241,0.0,2.0,99,0.00,,,0.00,Wunderground v.1.15,2013-10-02 13:43:00,
2013-10-02 09:49:00,54.8,54.5,30.13,WSW,241,0.0,2.0,99,0.00,,,0.00,Wunderground v.1.15,2013-10-02 13:49:00,
2013-10-02 09:55:00,55.0,54.7,30.13,WSW,241,0.0,2.0,99,0.00,,,0.00,Wunderground v.1.15,2013-10-02 13:55:00,
2013-10-02 10:01:00,55.1,54.8,30.13,WSW,241,0.0,2.0,99,0.00,,,0.00,Wunderground v.1.15,2013-10-02 14:01:00,
2013-10-02 10:07:00,55.3,55.0,30.13,WSW,241,0.0,2.0,99,0.00,,,0.00,Wunderground v.1.15,2013-10-02 14:07:00,
2013-10-02 10:13:00,55.3,55.0,30.13,WSW,241,0.0,2.0,99,0.00,,,0.00,Wunderground v.1.15,2013-10-02 14:13:00,
2013-10-02 10:19:00,55.4,55.1,30.13,WSW,241,0.0,2.0,99,0.00,,,0.00,Wunderground v.1.15,2013-10-02 14:19:00,
2013-10-02 10:24:00,55.6,55.3,30.13,WSW,241,0.0,2.0,99,0.00,,,0.00,Wunderground v.1.15,2013-10-02 14:24:00,
2013-10-02 10:30:00,55.9,55.6,30.13,WSW,241,0.0,2.0,99,0.00,,,0.00,Wunderground v.1.15,2013-10-02 14:30:00,
2013-10-02 10:35:00,56.2,55.9,30.13,WSW,241,0.0,2.0,99,0.00,,,0.00,Wunderground v.1.15,2013-10-02 14:35:00,
2013-10-02 10:41:00,56.7,56.4,30.13,WSW,241,0.0,2.0,99,0.00,,,0.00,Wunderground v.1.15,2013-10-02 14:41:00,
2013-10-02 10:46:00,57.3,57.0,30.13,WSW,241,0.0,2.0,99,0.00,,,0.00,Wunderground v.1.15,2013-10-02 14:46:00,
2013-10-02 10:52:00,57.8,57.5,30.13,SW,216,0.0,2.0,99,0.00,,,0.00,Wunderground v.1.15,2013-10-02 14:52:00,
2013-10-02 10:58:00,58.4,58.1,30.13,SW,216,0.0,2.0,99,0.00,,,0.00,Wunderground v.1.15,2013-10-02 14:58:00,
2013-10-02 11:04:00,59.3,59.0,30.12,SW,216,0.0,1.0,99,0.00,,,0.00,Wunderground v.1.15,2013-10-02 15:04:00,
2013-10-02 11:09:00,59.8,59.2,30.12,SW,216,0.0,1.0,98,0.00,,,0.00,Wunderground v.1.15,2013-10-02 15:09:00,
2013-10-02 11:15:00,60.7,59.8,30.12,SW,216,0.0,1.0,97,0.00,,,0.00,Wunderground v.1.15,2013-10-02 15:15:00,
2013-10-02 11:20:00,61.5,59.8,30.12,SW,216,0.0,1.0,94,0.00,,,0.00,Wunderground v.1.15,2013-10-02 15:20:00,
2013-10-02 11:26:00,62.4,58.5,30.12,West,279,0.0,1.0,87,0.00,,,0.00,Wunderground v.1.15,2013-10-02 15:26:00,
2013-10-02 11:31:00,62.9,58.6,30.12,WSW,240,0.0,1.0,86,0.00,,,0.00,Wunderground v.1.15,2013-10-02 15:31:00,
2013-10-02 11:37:00,63.9,59.0,30.12,WSW,240,0.0,4.0,84,0.00,,,0.00,Wunderground v.1.15,2013-10-02 15:37:00,
2013-10-02 11:42:00,64.5,59.2,30.12,WSW,240,0.0,4.0,83,0.00,,,0.00,Wunderground v.1.15,2013-10-02 15:42:00,
2013-10-02 11:48:00,65.6,59.6,30.11,WSW,240,0.0,4.0,81,0.00,,,0.00,Wunderground v.1.15,2013-10-02 15:48:00,
2013-10-02 11:54:00,66.8,60.1,30.11,WSW,240,0.0,4.0,79,0.00,,,0.00,Wunderground v.1.15,2013-10-02 15:54:00,
2013-10-02 11:59:00,67.4,59.9,30.11,WSW,240,0.0,4.0,77,0.00,,,0.00,Wunderground v.1.15,2013-10-02 15:59:00,
2013-10-02 12:05:00,67.9,59.7,30.11,SW,236,1.0,4.0,75,0.00,,,0.00,Wunderground v.1.15,2013-10-02 16:05:00,
2013-10-02 12:10:00,68.8,59.8,30.11,SW,229,1.0,4.0,73,0.00,,,0.00,Wunderground v.1.15,2013-10-02 16:10:00,
2013-10-02 12:16:00,69.1,58.1,30.10,SW,228,0.0,4.0,68,0.00,,,0.00,Wunderground v.1.15,2013-10-02 16:16:00,
2013-10-02 12:21:00,69.9,58.9,30.10,SSW,205,0.0,4.0,68,0.00,,,0.00,Wunderground v.1.15,2013-10-02 16:21:00,
2013-10-02 12:27:00,70.1,57.8,30.10,South,170,0.0,4.0,65,0.00,,,0.00,Wunderground v.1.15,2013-10-02 16:27:00,
2013-10-02 12:32:00,70.9,58.5,30.10,South,170,1.0,5.0,65,0.00,,,0.00,Wunderground v.1.15,2013-10-02 16:32:00,
2013-10-02 12:38:00,72.0,57.8,30.10,WSW,244,0.0,5.0,61,0.00,,,0.00,Wunderground v.1.15,2013-10-02 16:38:00,
2013-10-02 12:44:00,72.3,59.9,30.10,WSW,244,0.0,5.0,65,0.00,,,0.00,Wunderground v.1.15,2013-10-02 16:44:00,
2013-10-02 12:50:00,72.0,58.3,30.09,North,349,0.0,5.0,62,0.00,,,0.00,Wunderground v.1.15,2013-10-02 16:50:00,
2013-10-02 12:55:00,71.5,59.5,30.09,North,349,0.0,5.0,66,0.00,,,0.00,Wunderground v.1.15,2013-10-02 16:55:00,
2013-10-02 13:01:00,72.3,58.5,30.08,ESE,122,0.0,5.0,62,0.00,,,0.00,Wunderground v.1.15,2013-10-02 17:01:00,
2013-10-02 13:06:00,72.7,58.5,30.08,SE,146,1.0,4.0,61,0.00,,,0.00,Wunderground v.1.15,2013-10-02 17:06:00,
2013-10-02 13:12:00,73.0,58.3,30.08,WNW,292,1.0,4.0,60,0.00,,,0.00,Wunderground v.1.15,2013-10-02 17:12:00,
2013-10-02 13:17:00,72.8,58.1,30.08,WNW,292,0.0,4.0,60,0.00,,,0.00,Wunderground v.1.15,2013-10-02 17:17:00,
2013-10-02 13:23:00,72.1,59.2,30.08,WNW,292,0.0,4.0,64,0.00,,,0.00,Wunderground v.1.15,2013-10-02 17:23:00,
2013-10-02 13:29:00,71.3,58.9,30.08,WNW,292,0.0,4.0,65,0.00,,,0.00,Wunderground v.1.15,2013-10-02 17:29:00,
2013-10-02 13:35:00,70.8,58.0,30.07,WNW,292,0.0,4.0,64,0.00,,,0.00,Wunderground v.1.15,2013-10-02 17:35:00,
2013-10-02 13:40:00,70.4,57.2,30.07,WNW,292,0.0,4.0,63,0.00,,,0.00,Wunderground v.1.15,2013-10-02 17:40:00,
2013-10-02 13:46:00,70.4,57.6,30.07,WNW,292,0.0,4.0,64,0.00,,,0.00,Wunderground v.1.15,2013-10-02 17:46:00,
2013-10-02 13:52:00,71.1,58.3,30.07,WNW,292,0.0,4.0,64,0.00,,,0.00,Wunderground v.1.15,2013-10-02 17:52:00,
2013-10-02 13:57:00,71.8,57.2,30.07,SE,136,0.0,4.0,60,0.00,,,0.00,Wunderground v.1.15,2013-10-02 17:57:00,
2013-10-02 14:03:00,72.3,56.2,30.06,NE,51,0.0,5.0,57,0.00,,,0.00,Wunderground v.1.15,2013-10-02 18:03:00,
2013-10-02 14:08:00,73.2,56.1,30.06,NE,56,0.0,5.0,55,0.00,,,0.00,Wunderground v.1.15,2013-10-02 18:08:00,
2013-10-02 14:14:00,72.8,57.6,30.06,NE,46,0.0,5.0,59,0.00,,,0.00,Wunderground v.1.15,2013-10-02 18:14:00,
2013-10-02 14:20:00,72.3,57.2,30.05,NE,46,0.0,5.0,59,0.00,,,0.00,Wunderground v.1.15,2013-10-02 18:20:00,
2013-10-02 14:26:00,72.3,56.7,30.05,NE,46,0.0,5.0,58,0.00,,,0.00,Wunderground v.1.15,2013-10-02 18:26:00,
2013-10-02 14:31:00,73.0,56.4,30.05,East,95,0.0,5.0,56,0.00,,,0.00,Wunderground v.1.15,2013-10-02 18:31:00,
2013-10-02 14:37:00,73.9,57.2,30.05,NNW,332,0.0,3.0,56,0.00,,,0.00,Wunderground v.1.15,2013-10-02 18:37:00,
2013-10-02 14:43:00,74.4,55.6,30.05,NE,52,0.0,3.0,52,0.00,,,0.00,Wunderground v.1.15,2013-10-02 18:43:00,
2013-10-02 14:49:00,73.9,55.7,30.05,NE,51,0.0,3.0,53,0.00,,,0.00,Wunderground v.1.15,2013-10-02 18:49:00,
2013-10-02 14:54:00,73.5,58.3,30.05,NE,51,0.0,3.0,59,0.00,,,0.00,Wunderground v.1.15,2013-10-02 18:54:00,
2013-10-02 15:00:00,72.5,55.9,30.05,NE,51,0.0,3.0,56,0.00,,,0.00,Wunderground v.1.15,2013-10-02 19:00:00,
2013-10-02 15:06:00,72.3,55.7,30.04,NE,51,0.0,4.0,56,0.00,,,0.00,Wunderground v.1.15,2013-10-02 19:06:00,
2013-10-02 15:12:00,73.7,57.0,30.04,NE,51,0.0,4.0,56,0.00,,,0.00,Wunderground v.1.15,2013-10-02 19:12:00,
2013-10-02 15:17:00,75.1,53.5,30.04,SSW,205,0.0,4.0,47,0.00,,,0.00,Wunderground v.1.15,2013-10-02 19:17:00,
2013-10-02 15:22:00,75.6,56.7,30.04,SSW,205,0.0,4.0,52,0.00,,,0.00,Wunderground v.1.15,2013-10-02 19:22:00,
2013-10-02 15:28:00,75.4,53.8,30.04,SSE,153,0.0,4.0,47,0.00,,,0.00,Wunderground v.1.15,2013-10-02 19:28:00,
2013-10-02 15:33:00,74.9,55.6,30.03,SSE,153,1.0,1.0,51,0.00,,,0.00,Wunderground v.1.15,2013-10-02 19:33:00,
2013-10-02 15:39:00,74.9,55.0,30.03,NE,49,0.0,4.0,50,0.00,,,0.00,Wunderground v.1.15,2013-10-02 19:39:00,
2013-10-02 15:45:00,74.9,56.1,30.03,SE,146,0.0,4.0,52,0.00,,,0.00,Wunderground v.1.15,2013-10-02 19:45:00,
2013-10-02 15:50:00,74.7,55.4,30.03,NE,49,1.0,4.0,51,0.00,,,0.00,Wunderground v.1.15,2013-10-02 19:50:00,
2013-10-02 15:56:00,74.2,55.4,30.03,East,96,1.0,4.0,52,0.00,,,0.00,Wunderground v.1.15,2013-10-02 19:56:00,
2013-10-02 16:01:00,73.9,54.6,30.03,SE,146,1.0,4.0,51,0.00,,,0.00,Wunderground v.1.15,2013-10-02 20:01:00,
2013-10-02 16:07:00,73.7,56.0,30.03,SSE,151,1.0,5.0,54,0.00,,,0.00,Wunderground v.1.15,2013-10-02 20:07:00,
2013-10-02 16:13:00,74.0,55.8,30.03,SSE,151,0.0,5.0,53,0.00,,,0.00,Wunderground v.1.15,2013-10-02 20:13:00,
2013-10-02 16:19:00,74.6,57.4,30.03,SSE,151,0.0,5.0,55,0.00,,,0.00,Wunderground v.1.15,2013-10-02 20:19:00,
2013-10-02 16:24:00,74.7,56.9,30.03,SSE,151,0.0,5.0,54,0.00,,,0.00,Wunderground v.1.15,2013-10-02 20:24:00,
2013-10-02 16:30:00,74.0,55.8,30.03,SSE,155,1.0,5.0,53,0.00,,,0.00,Wunderground v.1.15,2013-10-02 20:30:00,
2013-10-02 16:35:00,73.5,55.3,30.03,SSE,155,1.0,6.0,53,0.00,,,0.00,Wunderground v.1.15,2013-10-02 20:35:00,
2013-10-02 16:41:00,73.0,55.4,30.03,SSE,155,0.0,6.0,54,0.00,,,0.00,Wunderground v.1.15,2013-10-02 20:41:00,
2013-10-02 16:47:00,72.8,57.2,30.03,SSE,155,0.0,6.0,58,0.00,,,0.00,Wunderground v.1.15,2013-10-02 20:47:00,
2013-10-02 16:53:00,72.5,57.8,30.03,SSE,155,0.0,6.0,60,0.00,,,0.00,Wunderground v.1.15,2013-10-02 20:53:00,
2013-10-02 16:58:00,72.1,58.4,30.03,SSE,155,0.0,6.0,62,0.00,,,0.00,Wunderground v.1.15,2013-10-02 20:58:00,
2013-10-02 17:04:00,71.8,57.2,30.03,SSE,155,0.0,2.0,60,0.00,,,0.00,Wunderground v.1.15,2013-10-02 21:04:00,
2013-10-02 17:09:00,71.6,57.9,30.03,SSE,155,0.0,2.0,62,0.00,,,0.00,Wunderground v.1.15,2013-10-02 21:09:00,
2013-10-02 17:15:00,71.3,58.1,30.03,SSE,155,0.0,2.0,63,0.00,,,0.00,Wunderground v.1.15,2013-10-02 21:15:00,
2013-10-02 17:20:00,70.9,57.7,30.03,SSE,155,0.0,2.0,63,0.00,,,0.00,Wunderground v.1.15,2013-10-02 21:20:00,
2013-10-02 17:25:00,70.6,57.4,30.03,SSE,155,0.0,2.0,63,0.00,,,0.00,Wunderground v.1.15,2013-10-02 21:25:00,
2013-10-02 17:31:00,70.4,58.5,30.03,SSE,155,0.0,2.0,66,0.00,,,0.00,Wunderground v.1.15,2013-10-02 21:31:00,
2013-10-02 17:37:00,70.1,58.6,30.03,SSE,155,0.0,0.0,67,0.00,,,0.00,Wunderground v.1.15,2013-10-02 21:37:00,
2013-10-02 17:43:00,69.9,57.2,30.03,SSE,155,0.0,0.0,64,0.00,,,0.00,Wunderground v.1.15,2013-10-02 21:43:00,
2013-10-02 17:48:00,70.1,57.8,30.03,SSE,155,0.0,0.0,65,0.00,,,0.00,Wunderground v.1.15,2013-10-02 21:48:00,
2013-10-02 17:54:00,70.3,58.8,30.03,SSE,155,0.0,0.0,67,0.00,,,0.00,Wunderground v.1.15,2013-10-02 21:54:00,
2013-10-02 18:00:00,70.8,58.0,30.03,SSE,155,0.0,0.0,64,0.00,,,0.00,Wunderground v.1.15,2013-10-02 22:00:00,
2013-10-02 18:06:00,70.9,59.4,30.03,SSE,155,0.0,0.0,67,0.00,,,0.00,Wunderground v.1.15,2013-10-02 22:06:00,
2013-10-02 18:12:00,70.9,59.8,30.03,SSE,155,0.0,0.0,68,0.00,,,0.00,Wunderground v.1.15,2013-10-02 22:12:00,
2013-10-02 18:18:00,70.8,59.7,30.03,SSE,155,0.0,0.0,68,0.00,,,0.00,Wunderground v.1.15,2013-10-02 22:18:00,
2013-10-02 18:23:00,70.3,60.8,30.03,SSE,155,0.0,0.0,72,0.00,,,0.00,Wunderground v.1.15,2013-10-02 22:23:00,
2013-10-02 18:29:00,69.9,60.8,30.03,SSE,155,0.0,0.0,73,0.00,,,0.00,Wunderground v.1.15,2013-10-02 22:29:00,
2013-10-02 18:35:00,69.3,60.3,30.03,SSE,155,0.0,0.0,73,0.00,,,0.00,Wunderground v.1.15,2013-10-02 22:35:00,
2013-10-02 18:41:00,68.6,60.0,30.03,SSE,155,0.0,0.0,74,0.00,,,0.00,Wunderground v.1.15,2013-10-02 22:41:00,
2013-10-02 18:46:00,67.8,60.0,30.03,SSE,155,0.0,0.0,76,0.00,,,0.00,Wunderground v.1.15,2013-10-02 22:46:00,
2013-10-02 18:52:00,67.3,60.2,30.03,SSE,155,0.0,0.0,78,0.00,,,0.00,Wunderground v.1.15,2013-10-02 22:52:00,
2013-10-02 18:57:00,66.8,59.7,30.03,SSE,155,0.0,0.0,78,0.00,,,0.00,Wunderground v.1.15,2013-10-02 22:57:00,
2013-10-02 19:02:00,66.3,59.9,30.03,SSE,155,0.0,0.0,80,0.00,,,0.00,Wunderground v.1.15,2013-10-02 23:02:00,
2013-10-02 19:08:00,65.8,59.8,30.03,SSE,155,0.0,0.0,81,0.00,,,0.00,Wunderground v.1.15,2013-10-02 23:08:00,
2013-10-02 19:13:00,65.3,59.7,30.03,SSE,155,0.0,0.0,82,0.00,,,0.00,Wunderground v.1.15,2013-10-02 23:13:00,
2013-10-02 19:20:00,64.7,59.4,30.04,SSE,155,0.0,0.0,83,0.00,,,0.00,Wunderground v.1.15,2013-10-02 23:20:00,
2013-10-02 19:25:00,64.2,58.9,30.04,SSE,155,0.0,0.0,83,0.00,,,0.00,Wunderground v.1.15,2013-10-02 23:25:00,
2013-10-02 19:30:00,63.9,59.0,30.04,SSE,155,0.0,0.0,84,0.00,,,0.00,Wunderground v.1.15,2013-10-02 23:30:00,
2013-10-02 19:35:00,63.4,58.8,30.04,SSE,155,0.0,0.0,85,0.00,,,0.00,Wunderground v.1.15,2013-10-02 23:35:00,
2013-10-02 19:41:00,63.1,58.5,30.04,SSE,155,0.0,0.0,85,0.00,,,0.00,Wunderground v.1.15,2013-10-02 23:41:00,
2013-10-02 19:46:00,62.6,58.0,30.04,SSE,155,0.0,0.0,85,0.00,,,0.00,Wunderground v.1.15,2013-10-02 23:46:00,
2013-10-02 19:51:00,62.3,58.1,30.04,SSE,155,0.0,0.0,86,0.00,,,0.00,Wunderground v.1.15,2013-10-02 23:51:00,
2013-10-02 19:57:00,61.8,57.9,30.04,SSE,155,0.0,0.0,87,0.00,,,0.00,Wunderground v.1.15,2013-10-02 23:57:00,
2013-10-02 20:03:00,61.5,57.9,30.04,SSE,155,0.0,0.0,88,0.00,,,0.00,Wunderground v.1.15,2013-10-03 00:03:00,
2013-10-02 20:09:00,61.3,57.7,30.04,SSE,155,0.0,0.0,88,0.00,,,0.00,Wunderground v.1.15,2013-10-03 00:09:00,
2013-10-02 20:15:00,61.2,57.6,30.04,SSE,155,0.0,0.0,88,0.00,,,0.00,Wunderground v.1.15,2013-10-03 00:15:00,
2013-10-02 20:20:00,60.9,57.3,30.04,SSE,155,0.0,0.0,88,0.00,,,0.00,Wunderground v.1.15,2013-10-03 00:20:00,
2013-10-02 20:26:00,60.5,57.2,30.04,SSE,155,0.0,0.0,89,0.00,,,0.00,Wunderground v.1.15,2013-10-03 00:26:00,
2013-10-02 20:31:00,60.4,57.1,30.04,SSE,155,0.0,0.0,89,0.00,,,0.00,Wunderground v.1.15,2013-10-03 00:31:00,
2013-10-02 20:37:00,60.2,56.9,30.04,SSE,155,0.0,0.0,89,0.00,,,0.00,Wunderground v.1.15,2013-10-03 00:37:00,
2013-10-02 20:43:00,60.1,57.2,30.04,SSE,155,0.0,0.0,90,0.00,,,0.00,Wunderground v.1.15,2013-10-03 00:43:00,
2013-10-02 20:49:00,59.9,57.0,30.04,SSE,155,0.0,0.0,90,0.00,,,0.00,Wunderground v.1.15,2013-10-03 00:49:00,
2013-10-02 20:54:00,59.8,56.9,30.04,SSE,155,0.0,0.0,90,0.00,,,0.00,Wunderground v.1.15,2013-10-03 00:54:00,
2013-10-02 20:59:00,59.8,56.9,30.04,SSE,155,0.0,0.0,90,0.00,,,0.00,Wunderground v.1.15,2013-10-03 00:59:00,
2013-10-02 21:05:00,59.6,56.7,30.05,SSE,155,0.0,0.0,90,0.00,,,0.00,Wunderground v.1.15,2013-10-03 01:05:00,
2013-10-02 21:11:00,59.3,56.7,30.05,SSE,155,0.0,0.0,91,0.00,,,0.00,Wunderground v.1.15,2013-10-03 01:11:00,
2013-10-02 21:17:00,59.2,56.6,30.05,SSE,155,0.0,0.0,91,0.00,,,0.00,Wunderground v.1.15,2013-10-03 01:17:00,
2013-10-02 21:22:00,59.2,56.9,30.05,SSE,155,0.0,0.0,92,0.00,,,0.00,Wunderground v.1.15,2013-10-03 01:22:00,
2013-10-02 21:27:00,59.0,56.7,30.05,SSE,155,0.0,0.0,92,0.00,,,0.00,Wunderground v.1.15,2013-10-03 01:27:00,
2013-10-02 21:33:00,58.9,56.6,30.06,SSE,155,0.0,0.0,92,0.00,,,0.00,Wunderground v.1.15,2013-10-03 01:33:00,
2013-10-02 21:39:00,58.7,56.4,30.06,SSE,155,0.0,0.0,92,0.00,,,0.00,Wunderground v.1.15,2013-10-03 01:39:00,
2013-10-02 21:44:00,58.6,56.3,30.06,SSE,155,0.0,0.0,92,0.00,,,0.00,Wunderground v.1.15,2013-10-03 01:44:00,
2013-10-02 21:50:00,58.6,56.3,30.06,SSE,155,0.0,0.0,92,0.00,,,0.00,Wunderground v.1.15,2013-10-03 01:50:00,
2013-10-02 21:55:00,58.4,56.1,30.06,SSE,155,0.0,0.0,92,0.00,,,0.00,Wunderground v.1.15,2013-10-03 01:55:00,
2013-10-02 22:01:00,58.3,56.3,30.06,SSE,155,0.0,0.0,93,0.00,,,0.00,Wunderground v.1.15,2013-10-03 02:01:00,
2013-10-02 22:05:00,58.3,56.3,30.06,SSE,155,0.0,0.0,93,0.00,,,0.00,Wunderground v.1.15,2013-10-03 02:05:00,
2013-10-02 22:11:00,58.0,55.7,30.06,SSE,155,0.0,0.0,92,0.00,,,0.00,Wunderground v.1.15,2013-10-03 02:11:00,
2013-10-02 22:17:00,57.8,55.5,30.07,SSE,155,0.0,0.0,92,0.00,,,0.00,Wunderground v.1.15,2013-10-03 02:17:00,
2013-10-02 22:23:00,57.5,55.2,30.07,SSE,155,0.0,0.0,92,0.00,,,0.00,Wunderground v.1.15,2013-10-03 02:23:00,
2013-10-02 22:29:00,57.3,55.0,30.07,SSE,155,0.0,0.0,92,0.00,,,0.00,Wunderground v.1.15,2013-10-03 02:29:00,
2013-10-02 22:34:00,57.2,55.2,30.07,SSE,155,0.0,0.0,93,0.00,,,0.00,Wunderground v.1.15,2013-10-03 02:34:00,
2013-10-02 22:40:00,57.2,55.5,30.07,SSE,155,0.0,0.0,94,0.00,,,0.00,Wunderground v.1.15,2013-10-03 02:40:00,
2013-10-02 22:46:00,57.3,55.9,30.08,SSE,155,0.0,0.0,95,0.00,,,0.00,Wunderground v.1.15,2013-10-03 02:46:00,
2013-10-02 22:52:00,57.2,55.5,30.08,SSE,155,0.0,0.0,94,0.00,,,0.00,Wunderground v.1.15,2013-10-03 02:52:00,
2013-10-02 22:57:00,56.9,55.2,30.08,SSE,155,0.0,0.0,94,0.00,,,0.00,Wunderground v.1.15,2013-10-03 02:57:00,
2013-10-02 23:03:00,56.7,55.0,30.08,SSE,155,0.0,0.0,94,0.00,,,0.00,Wunderground v.1.15,2013-10-03 03:03:00,
2013-10-02 23:10:00,56.7,55.3,30.08,SSE,155,0.0,0.0,95,0.00,,,0.00,Wunderground v.1.15,2013-10-03 03:10:00,
2013-10-02 23:15:00,56.7,55.3,30.08,SSE,155,0.0,0.0,95,0.00,,,0.00,Wunderground v.1.15,2013-10-03 03:15:00,
2013-10-02 23:21:00,56.7,55.3,30.08,SSE,155,0.0,0.0,95,0.00,,,0.00,Wunderground v.1.15,2013-10-03 03:21:00,
2013-10-02 23:26:00,56.7,55.3,30.08,SSE,155,0.0,0.0,95,0.00,,,0.00,Wunderground v.1.15,2013-10-03 03:26:00,
2013-10-02 23:32:00,56.7,55.3,30.08,SSE,155,0.0,0.0,95,0.00,,,0.00,Wunderground v.1.15,2013-10-03 03:32:00,
2013-10-02 23:38:00,56.6,55.2,30.08,SSE,155,0.0,0.0,95,0.00,,,0.00,Wunderground v.1.15,2013-10-03 03:38:00,
2013-10-02 23:43:00,56.5,55.1,30.08,SSE,155,0.0,0.0,95,0.00,,,0.00,Wunderground v.1.15,2013-10-03 03:43:00,
2013-10-02 23:48:00,56.3,54.9,30.08,SSE,155,0.0,0.0,95,0.00,,,0.00,Wunderground v.1.15,2013-10-03 03:48:00,
2013-10-02 23:53:00,56.3,55.2,30.08,SSE,155,0.0,0.0,96,0.00,,,0.00,Wunderground v.1.15,2013-10-03 03:53:00,